owner,sensor,date,latitude,longitude,vertical_datum,direction_of_sea_water_velocity,sea_water_speed,upward_sea_water_velocity,qcFlag 
WAVCIS,ioos:station:WAVCIS:CSI16:1,2009-06-01T00:00:00Z,29.4012,-89.0355,11.36,139.0,0.049,-99999.0,'11133222,11111222,99999999' 
WAVCIS,ioos:station:WAVCIS:CSI16:1,2009-06-01T01:00:00Z,29.4012,-89.0355,10.86,59.0,0.105,-99999.0,'11133222,11111222,99999999' 
WAVCIS,ioos:station:WAVCIS:CSI16:1,2009-06-01T02:00:00Z,29.4012,-89.0355,11.36,90.0,0.108,-99999.0,'11133222,11111222,99999999' 
WAVCIS,ioos:station:WAVCIS:CSI16:1,2009-06-01T03:00:00Z,29.4012,-89.0355,11.36,93.0,0.173,-99999.0,'11133222,11111222,99999999' 
WAVCIS,ioos:station:WAVCIS:CSI16:1,2009-06-01T04:00:00Z,29.4012,-89.0355,11.36,102.0,0.141,-99999.0,'11133222,11111222,99999999' 
WAVCIS,ioos:station:WAVCIS:CSI16:1,2009-06-01T05:00:00Z,29.4012,-89.0355,11.36,118.0,0.129,-99999.0,'11133222,11111222,99999999' 
WAVCIS,ioos:station:WAVCIS:CSI16:1,2009-06-01T06:00:00Z,29.4012,-89.0355,11.36,101.0,0.137,-99999.0,'11133222,11111222,99999999' 
WAVCIS,ioos:station:WAVCIS:CSI16:1,2009-06-01T07:00:00Z,29.4012,-89.0355,11.36,108.0,0.067,-99999.0,'11133222,11111222,99999999' 
WAVCIS,ioos:station:WAVCIS:CSI16:1,2009-06-01T08:00:00Z,29.4012,-89.0355,11.36,7.0,0.056,-99999.0,'11133222,11111222,99999999' 
WAVCIS,ioos:station:WAVCIS:CSI16:1,2009-06-01T09:00:00Z,29.4012,-89.0355,11.36,32.0,0.155,-99999.0,'11133222,11111222,99999999' 
WAVCIS,ioos:station:WAVCIS:CSI16:1,2009-06-01T10:00:00Z,29.4012,-89.0355,11.36,65.0,0.16,-99999.0,'11133222,11111222,99999999' 
WAVCIS,ioos:station:WAVCIS:CSI16:1,2009-06-01T11:00:00Z,29.4012,-89.0355,11.36,83.0,0.203,-99999.0,'11133222,11111222,99999999' 
WAVCIS,ioos:station:WAVCIS:CSI16:1,2009-06-01T12:00:00Z,29.4012,-89.0355,11.36,87.0,0.232,-99999.0,'11133222,11111222,99999999' 
WAVCIS,ioos:station:WAVCIS:CSI16:1,2009-06-01T13:00:00Z,29.4012,-89.0355,11.36,47.0,0.31,-99999.0,'11133222,11111222,99999999' 
WAVCIS,ioos:station:WAVCIS:CSI16:1,2009-06-01T14:00:00Z,29.4012,-89.0355,11.36,65.0,0.235,-99999.0,'11133222,11111222,99999999' 
WAVCIS,ioos:station:WAVCIS:CSI16:1,2009-06-01T15:00:00Z,29.4012,-89.0355,11.36,129.0,0.141,-99999.0,'11133222,11111222,99999999' 
WAVCIS,ioos:station:WAVCIS:CSI16:1,2009-06-01T16:00:00Z,29.4012,-89.0355,11.36,122.0,0.137,-99999.0,'11133222,11111222,99999999' 
WAVCIS,ioos:station:WAVCIS:CSI16:1,2009-06-01T17:00:00Z,29.4012,-89.0355,11.36,55.0,0.079,-99999.0,'11133222,11111222,99999999' 
WAVCIS,ioos:station:WAVCIS:CSI16:1,2009-06-01T18:00:00Z,29.4012,-89.0355,11.36,65.0,0.111,-99999.0,'11133222,11111222,99999999' 
WAVCIS,ioos:station:WAVCIS:CSI16:1,2009-06-01T19:00:00Z,29.4012,-89.0355,10.86,122.0,0.174,-99999.0,'11133222,11111222,99999999' 
WAVCIS,ioos:station:WAVCIS:CSI16:1,2009-06-01T20:00:00Z,29.4012,-89.0355,11.36,65.0,0.077,-99999.0,'11133222,11111222,99999999' 
WAVCIS,ioos:station:WAVCIS:CSI16:1,2009-06-01T21:00:00Z,29.4012,-89.0355,11.36,51.0,0.159,-99999.0,'11133222,11111222,99999999' 
WAVCIS,ioos:station:WAVCIS:CSI16:1,2009-06-01T22:00:00Z,29.4012,-89.0355,11.36,61.0,0.099,-99999.0,'11133222,11111222,99999999' 
WAVCIS,ioos:station:WAVCIS:CSI16:1,2009-06-01T23:00:00Z,29.4012,-89.0355,11.36,94.0,0.118,-99999.0,'11133222,11111222,99999999' 
WAVCIS,ioos:station:WAVCIS:CSI16:1,2009-06-02T00:00:00Z,29.4012,-89.0355,11.36,68.0,0.183,-99999.0,'11133222,11111222,99999999' 
WAVCIS,ioos:station:WAVCIS:CSI16:1,2009-06-02T01:00:00Z,29.4012,-89.0355,11.36,59.0,0.153,-99999.0,'11133222,11111222,99999999' 
WAVCIS,ioos:station:WAVCIS:CSI16:1,2009-06-02T02:00:00Z,29.4012,-89.0355,11.36,68.0,0.263,-99999.0,'11133222,11111222,99999999' 
WAVCIS,ioos:station:WAVCIS:CSI16:1,2009-06-02T03:00:00Z,29.4012,-89.0355,11.36,67.0,0.247,-99999.0,'11133222,11111222,99999999' 
WAVCIS,ioos:station:WAVCIS:CSI16:1,2009-06-02T04:00:00Z,29.4012,-89.0355,11.36,72.0,0.273,-99999.0,'11133222,11111222,99999999' 
WAVCIS,ioos:station:WAVCIS:CSI16:1,2009-06-02T05:00:00Z,29.4012,-89.0355,11.36,73.0,0.245,-99999.0,'11133222,11111222,99999999' 
WAVCIS,ioos:station:WAVCIS:CSI16:1,2009-06-02T06:00:00Z,29.4012,-89.0355,11.36,76.0,0.285,-99999.0,'11133222,11111222,99999999' 
WAVCIS,ioos:station:WAVCIS:CSI16:1,2009-06-02T07:00:00Z,29.4012,-89.0355,11.36,75.0,0.306,-99999.0,'11133222,11111222,99999999' 
WAVCIS,ioos:station:WAVCIS:CSI16:1,2009-06-02T08:00:00Z,29.4012,-89.0355,11.36,77.0,0.338,-99999.0,'11133222,11111222,99999999' 
WAVCIS,ioos:station:WAVCIS:CSI16:1,2009-06-02T09:00:00Z,29.4012,-89.0355,11.36,99.0,0.28,-99999.0,'11133222,11111222,99999999' 
WAVCIS,ioos:station:WAVCIS:CSI16:1,2009-06-02T10:00:00Z,29.4012,-89.0355,11.36,88.0,0.256,-99999.0,'11133222,11111222,99999999' 
WAVCIS,ioos:station:WAVCIS:CSI16:1,2009-06-02T11:00:00Z,29.4012,-89.0355,11.36,87.0,0.222,-99999.0,'11133222,11111222,99999999' 
WAVCIS,ioos:station:WAVCIS:CSI16:1,2009-06-02T12:00:00Z,29.4012,-89.0355,11.36,74.0,0.152,-99999.0,'11133222,11111222,99999999' 
WAVCIS,ioos:station:WAVCIS:CSI16:1,2009-06-02T13:00:00Z,29.4012,-89.0355,11.36,58.0,0.2,-99999.0,'11133222,11111222,99999999' 
WAVCIS,ioos:station:WAVCIS:CSI16:1,2009-06-02T14:00:00Z,29.4012,-89.0355,11.36,48.0,0.232,-99999.0,'11133222,11111222,99999999' 
WAVCIS,ioos:station:WAVCIS:CSI16:1,2009-06-02T15:00:00Z,29.4012,-89.0355,11.36,38.0,0.346,-99999.0,'11133222,11111222,99999999' 
WAVCIS,ioos:station:WAVCIS:CSI16:1,2009-06-02T16:00:00Z,29.4012,-89.0355,11.36,45.0,0.436,-99999.0,'11133222,11111222,99999999' 
WAVCIS,ioos:station:WAVCIS:CSI16:1,2009-06-02T17:00:00Z,29.4012,-89.0355,10.86,40.0,0.25,-99999.0,'11133222,11111222,99999999' 
WAVCIS,ioos:station:WAVCIS:CSI16:1,2009-06-02T18:00:00Z,29.4012,-89.0355,10.86,32.0,0.309,-99999.0,'11133222,11111222,99999999' 
WAVCIS,ioos:station:WAVCIS:CSI16:1,2009-06-02T19:00:00Z,29.4012,-89.0355,10.86,47.0,0.352,-99999.0,'11133222,11111222,99999999' 
WAVCIS,ioos:station:WAVCIS:CSI16:1,2009-06-02T20:00:00Z,29.4012,-89.0355,10.86,51.0,0.365,-99999.0,'11133222,11111222,99999999' 
WAVCIS,ioos:station:WAVCIS:CSI16:1,2009-06-02T21:00:00Z,29.4012,-89.0355,10.86,199.0,0.38,-99999.0,'11133222,11111222,99999999' 
WAVCIS,ioos:station:WAVCIS:CSI16:1,2009-06-02T22:00:00Z,29.4012,-89.0355,10.86,220.0,0.239,-99999.0,'11133222,11111222,99999999' 
WAVCIS,ioos:station:WAVCIS:CSI16:1,2009-06-02T23:00:00Z,29.4012,-89.0355,10.86,251.0,0.134,-99999.0,'11133222,11111222,99999999' 
WAVCIS,ioos:station:WAVCIS:CSI16:1,2009-06-03T00:00:00Z,29.4012,-89.0355,10.86,252.0,0.1,-99999.0,'11133222,11111222,99999999' 
WAVCIS,ioos:station:WAVCIS:CSI16:1,2009-06-03T01:00:00Z,29.4012,-89.0355,10.86,315.0,0.124,-99999.0,'11133222,11111222,99999999' 
WAVCIS,ioos:station:WAVCIS:CSI16:1,2009-06-03T02:00:00Z,29.4012,-89.0355,10.86,335.0,0.114,-99999.0,'11133222,11111222,99999999' 
WAVCIS,ioos:station:WAVCIS:CSI16:1,2009-06-03T03:00:00Z,29.4012,-89.0355,10.86,71.0,0.17,-99999.0,'11133222,11111222,99999999' 
WAVCIS,ioos:station:WAVCIS:CSI16:1,2009-06-03T04:00:00Z,29.4012,-89.0355,10.86,106.0,0.255,-99999.0,'11133222,11111222,99999999' 
WAVCIS,ioos:station:WAVCIS:CSI16:1,2009-06-03T05:00:00Z,29.4012,-89.0355,10.86,90.0,0.34,-99999.0,'11133222,11111222,99999999' 
WAVCIS,ioos:station:WAVCIS:CSI16:1,2009-06-03T06:00:00Z,29.4012,-89.0355,10.86,71.0,0.384,-99999.0,'11133222,11111222,99999999' 
WAVCIS,ioos:station:WAVCIS:CSI16:1,2009-06-03T07:00:00Z,29.4012,-89.0355,11.36,77.0,0.443,-99999.0,'11133222,11111222,99999999' 
WAVCIS,ioos:station:WAVCIS:CSI16:1,2009-06-03T08:00:00Z,29.4012,-89.0355,11.36,75.0,0.108,-99999.0,'11133222,11111222,99999999' 
WAVCIS,ioos:station:WAVCIS:CSI16:1,2009-06-03T09:00:00Z,29.4012,-89.0355,11.36,54.0,0.082,-99999.0,'11133222,11111222,99999999' 
WAVCIS,ioos:station:WAVCIS:CSI16:1,2009-06-03T10:00:00Z,29.4012,-89.0355,11.36,2.0,0.064,-99999.0,'11133222,11111222,99999999' 
WAVCIS,ioos:station:WAVCIS:CSI16:1,2009-06-03T11:00:00Z,29.4012,-89.0355,11.36,11.0,0.106,-99999.0,'11133222,11111222,99999999' 
WAVCIS,ioos:station:WAVCIS:CSI16:1,2009-06-03T12:00:00Z,29.4012,-89.0355,11.36,70.0,0.067,-99999.0,'11133222,11111222,99999999' 
WAVCIS,ioos:station:WAVCIS:CSI16:1,2009-06-03T13:00:00Z,29.4012,-89.0355,11.36,118.0,0.071,-99999.0,'11133222,11111222,99999999' 
WAVCIS,ioos:station:WAVCIS:CSI16:1,2009-06-03T14:00:00Z,29.4012,-89.0355,11.36,116.0,0.08,-99999.0,'11133222,11111222,99999999' 
WAVCIS,ioos:station:WAVCIS:CSI16:1,2009-06-03T15:00:00Z,29.4012,-89.0355,11.36,123.0,0.098,-99999.0,'11133222,11111222,99999999' 
WAVCIS,ioos:station:WAVCIS:CSI16:1,2009-06-03T16:00:00Z,29.4012,-89.0355,11.36,46.0,0.282,-99999.0,'11133222,11111222,99999999' 
WAVCIS,ioos:station:WAVCIS:CSI16:1,2009-06-03T17:00:00Z,29.4012,-89.0355,10.86,58.0,0.355,-99999.0,'11133222,11111222,99999999' 
WAVCIS,ioos:station:WAVCIS:CSI16:1,2009-06-03T18:00:00Z,29.4012,-89.0355,10.86,36.0,0.115,-99999.0,'11133222,11111222,99999999' 
WAVCIS,ioos:station:WAVCIS:CSI16:1,2009-06-03T19:00:00Z,29.4012,-89.0355,10.86,326.0,0.132,-99999.0,'11133222,11111222,99999999' 
WAVCIS,ioos:station:WAVCIS:CSI16:1,2009-06-03T20:00:00Z,29.4012,-89.0355,10.86,329.0,0.108,-99999.0,'11133222,11111222,99999999' 
WAVCIS,ioos:station:WAVCIS:CSI16:1,2009-06-03T21:00:00Z,29.4012,-89.0355,10.86,336.0,0.199,-99999.0,'11133222,11111222,99999999' 
WAVCIS,ioos:station:WAVCIS:CSI16:1,2009-06-03T22:00:00Z,29.4012,-89.0355,10.86,333.0,0.297,-99999.0,'11133222,11111222,99999999' 
WAVCIS,ioos:station:WAVCIS:CSI16:1,2009-06-03T23:00:00Z,29.4012,-89.0355,10.86,336.0,0.162,-99999.0,'11133222,11111222,99999999' 
WAVCIS,ioos:station:WAVCIS:CSI16:1,2009-06-04T00:00:00Z,29.4012,-89.0355,10.86,314.0,0.096,-99999.0,'11133222,11111222,99999999' 
WAVCIS,ioos:station:WAVCIS:CSI16:1,2009-06-04T01:00:00Z,29.4012,-89.0355,10.86,285.0,0.126,-99999.0,'11133222,11111222,99999999' 
WAVCIS,ioos:station:WAVCIS:CSI16:1,2009-06-04T02:00:00Z,29.4012,-89.0355,10.86,238.0,0.181,-99999.0,'11133222,11111222,99999999' 
WAVCIS,ioos:station:WAVCIS:CSI16:1,2009-06-04T03:00:00Z,29.4012,-89.0355,10.86,219.0,0.356,-99999.0,'11133222,11111222,99999999' 
WAVCIS,ioos:station:WAVCIS:CSI16:1,2009-06-04T04:00:00Z,29.4012,-89.0355,11.36,223.0,0.354,-99999.0,'11133222,11111222,99999999' 
WAVCIS,ioos:station:WAVCIS:CSI16:1,2009-06-04T05:00:00Z,29.4012,-89.0355,11.36,210.0,0.33,-99999.0,'11133222,11111222,99999999' 
WAVCIS,ioos:station:WAVCIS:CSI16:1,2009-06-04T06:00:00Z,29.4012,-89.0355,11.36,210.0,0.191,-99999.0,'11133222,11111222,99999999' 
WAVCIS,ioos:station:WAVCIS:CSI16:1,2009-06-04T07:00:00Z,29.4012,-89.0355,11.36,204.0,0.203,-99999.0,'11133222,11111222,99999999' 
WAVCIS,ioos:station:WAVCIS:CSI16:1,2009-06-04T08:00:00Z,29.4012,-89.0355,11.36,198.0,0.322,-99999.0,'11133222,11111222,99999999' 
WAVCIS,ioos:station:WAVCIS:CSI16:1,2009-06-04T09:00:00Z,29.4012,-89.0355,11.36,195.0,0.303,-99999.0,'11133222,11111222,99999999' 
WAVCIS,ioos:station:WAVCIS:CSI16:1,2009-06-04T10:00:00Z,29.4012,-89.0355,11.36,178.0,0.255,-99999.0,'11133222,11111222,99999999' 
WAVCIS,ioos:station:WAVCIS:CSI16:1,2009-06-04T11:00:00Z,29.4012,-89.0355,11.36,198.0,0.316,-99999.0,'11133222,11111222,99999999' 
WAVCIS,ioos:station:WAVCIS:CSI16:1,2009-06-04T12:00:00Z,29.4012,-89.0355,11.36,198.0,0.324,-99999.0,'11133222,11111222,99999999' 
WAVCIS,ioos:station:WAVCIS:CSI16:1,2009-06-04T13:00:00Z,29.4012,-89.0355,11.36,186.0,0.25,-99999.0,'11133222,11111222,99999999' 
WAVCIS,ioos:station:WAVCIS:CSI16:1,2009-06-04T14:00:00Z,29.4012,-89.0355,11.36,196.0,0.406,-99999.0,'11133222,11111222,99999999' 
WAVCIS,ioos:station:WAVCIS:CSI16:1,2009-06-04T15:00:00Z,29.4012,-89.0355,11.36,194.0,0.574,-99999.0,'11133222,11111222,99999999' 
WAVCIS,ioos:station:WAVCIS:CSI16:1,2009-06-04T16:00:00Z,29.4012,-89.0355,10.86,213.0,0.623,-99999.0,'11133222,11111222,99999999' 
WAVCIS,ioos:station:WAVCIS:CSI16:1,2009-06-04T17:00:00Z,29.4012,-89.0355,10.86,212.0,0.451,-99999.0,'11133222,11111222,99999999' 
WAVCIS,ioos:station:WAVCIS:CSI16:1,2009-06-04T18:00:00Z,29.4012,-89.0355,10.86,219.0,0.632,-99999.0,'11133222,11111222,99999999' 
WAVCIS,ioos:station:WAVCIS:CSI16:1,2009-06-04T19:00:00Z,29.4012,-89.0355,10.86,220.0,0.707,-99999.0,'11133222,11111222,99999999' 
WAVCIS,ioos:station:WAVCIS:CSI16:1,2009-06-04T20:00:00Z,29.4012,-89.0355,10.86,217.0,0.649,-99999.0,'11133222,11111222,99999999' 
WAVCIS,ioos:station:WAVCIS:CSI16:1,2009-06-04T21:00:00Z,29.4012,-89.0355,10.86,214.0,0.722,-99999.0,'11133222,11111222,99999999' 
WAVCIS,ioos:station:WAVCIS:CSI16:1,2009-06-04T22:00:00Z,29.4012,-89.0355,10.86,217.0,0.806,-99999.0,'11133222,11111222,99999999' 
WAVCIS,ioos:station:WAVCIS:CSI16:1,2009-06-04T23:00:00Z,29.4012,-89.0355,10.86,216.0,0.671,-99999.0,'11133222,11111222,99999999' 
WAVCIS,ioos:station:WAVCIS:CSI16:1,2009-06-05T00:00:00Z,29.4012,-89.0355,10.86,214.0,0.48,-99999.0,'11133222,11111222,99999999' 
WAVCIS,ioos:station:WAVCIS:CSI16:1,2009-06-05T01:00:00Z,29.4012,-89.0355,10.86,199.0,0.326,-99999.0,'11133222,11111222,99999999' 
WAVCIS,ioos:station:WAVCIS:CSI16:1,2009-06-05T02:00:00Z,29.4012,-89.0355,10.86,197.0,0.374,-99999.0,'11133222,11111222,99999999' 
WAVCIS,ioos:station:WAVCIS:CSI16:1,2009-06-05T03:00:00Z,29.4012,-89.0355,10.86,228.0,0.319,-99999.0,'11133222,11111222,99999999' 
WAVCIS,ioos:station:WAVCIS:CSI16:1,2009-06-05T04:00:00Z,29.4012,-89.0355,10.86,241.0,0.157,-99999.0,'11133222,11111222,99999999' 
WAVCIS,ioos:station:WAVCIS:CSI16:1,2009-06-05T05:00:00Z,29.4012,-89.0355,11.36,162.0,0.094,-99999.0,'11133222,11111222,99999999' 
WAVCIS,ioos:station:WAVCIS:CSI16:1,2009-06-05T06:00:00Z,29.4012,-89.0355,11.36,193.0,0.236,-99999.0,'11133222,11111222,99999999' 
WAVCIS,ioos:station:WAVCIS:CSI16:1,2009-06-05T07:00:00Z,29.4012,-89.0355,11.36,241.0,0.412,-99999.0,'11133222,11111222,99999999' 
WAVCIS,ioos:station:WAVCIS:CSI16:1,2009-06-05T08:00:00Z,29.4012,-89.0355,11.36,238.0,0.25,-99999.0,'11133222,11111222,99999999' 
WAVCIS,ioos:station:WAVCIS:CSI16:1,2009-06-05T09:00:00Z,29.4012,-89.0355,11.36,261.0,0.245,-99999.0,'11133222,11111222,99999999' 
WAVCIS,ioos:station:WAVCIS:CSI16:1,2009-06-05T10:00:00Z,29.4012,-89.0355,11.36,262.0,0.263,-99999.0,'11133222,11111222,99999999' 
WAVCIS,ioos:station:WAVCIS:CSI16:1,2009-06-05T11:00:00Z,29.4012,-89.0355,11.36,170.0,0.055,-99999.0,'11133222,11111222,99999999' 
WAVCIS,ioos:station:WAVCIS:CSI16:1,2009-06-05T12:00:00Z,29.4012,-89.0355,11.36,230.0,0.104,-99999.0,'11133222,11111222,99999999' 
WAVCIS,ioos:station:WAVCIS:CSI16:1,2009-06-05T13:00:00Z,29.4012,-89.0355,11.36,246.0,0.182,-99999.0,'11133222,11111222,99999999' 
WAVCIS,ioos:station:WAVCIS:CSI16:1,2009-06-05T14:00:00Z,29.4012,-89.0355,11.36,247.0,0.251,-99999.0,'11133222,11111222,99999999' 
WAVCIS,ioos:station:WAVCIS:CSI16:1,2009-06-05T15:00:00Z,29.4012,-89.0355,11.36,242.0,0.283,-99999.0,'11133222,11111222,99999999' 
WAVCIS,ioos:station:WAVCIS:CSI16:1,2009-06-05T16:00:00Z,29.4012,-89.0355,11.36,251.0,0.507,-99999.0,'11133222,11111222,99999999' 
WAVCIS,ioos:station:WAVCIS:CSI16:1,2009-06-05T17:00:00Z,29.4012,-89.0355,11.36,249.0,0.48,-99999.0,'11133222,11111222,99999999' 
WAVCIS,ioos:station:WAVCIS:CSI16:1,2009-06-05T18:00:00Z,29.4012,-89.0355,10.86,256.0,0.346,-99999.0,'11133222,11111222,99999999' 
WAVCIS,ioos:station:WAVCIS:CSI16:1,2009-06-05T19:00:00Z,29.4012,-89.0355,10.86,254.0,0.391,-99999.0,'11133222,11111222,99999999' 
WAVCIS,ioos:station:WAVCIS:CSI16:1,2009-06-05T20:00:00Z,29.4012,-89.0355,10.86,250.0,0.376,-99999.0,'11133222,11111222,99999999' 
WAVCIS,ioos:station:WAVCIS:CSI16:1,2009-06-05T21:00:00Z,29.4012,-89.0355,10.86,247.0,0.432,-99999.0,'11133222,11111222,99999999' 
WAVCIS,ioos:station:WAVCIS:CSI16:1,2009-06-05T22:00:00Z,29.4012,-89.0355,10.86,263.0,0.331,-99999.0,'11133222,11111222,99999999' 
WAVCIS,ioos:station:WAVCIS:CSI16:1,2009-06-05T23:00:00Z,29.4012,-89.0355,10.86,278.0,0.259,-99999.0,'11133222,11111222,99999999' 
WAVCIS,ioos:station:WAVCIS:CSI16:1,2009-06-06T00:00:00Z,29.4012,-89.0355,10.86,278.0,0.243,-99999.0,'11133222,11111222,99999999' 
WAVCIS,ioos:station:WAVCIS:CSI16:1,2009-06-06T01:00:00Z,29.4012,-89.0355,10.86,301.0,0.187,-99999.0,'11133222,11111222,99999999' 
WAVCIS,ioos:station:WAVCIS:CSI16:1,2009-06-06T02:00:00Z,29.4012,-89.0355,10.86,295.0,0.288,-99999.0,'11133222,11111222,99999999' 
WAVCIS,ioos:station:WAVCIS:CSI16:1,2009-06-06T03:00:00Z,29.4012,-89.0355,10.86,301.0,0.272,-99999.0,'11133222,11111222,99999999' 
WAVCIS,ioos:station:WAVCIS:CSI16:1,2009-06-06T04:00:00Z,29.4012,-89.0355,10.86,304.0,0.216,-99999.0,'11133222,11111222,99999999' 
WAVCIS,ioos:station:WAVCIS:CSI16:1,2009-06-06T05:00:00Z,29.4012,-89.0355,10.86,299.0,0.189,-99999.0,'11133222,11111222,99999999' 
WAVCIS,ioos:station:WAVCIS:CSI16:1,2009-06-06T06:00:00Z,29.4012,-89.0355,10.86,311.0,0.213,-99999.0,'11133222,11111222,99999999' 
WAVCIS,ioos:station:WAVCIS:CSI16:1,2009-06-06T07:00:00Z,29.4012,-89.0355,10.86,333.0,0.227,-99999.0,'11133222,11111222,99999999' 
WAVCIS,ioos:station:WAVCIS:CSI16:1,2009-06-06T08:00:00Z,29.4012,-89.0355,11.36,316.0,0.156,-99999.0,'11133222,11111222,99999999' 
WAVCIS,ioos:station:WAVCIS:CSI16:1,2009-06-06T09:00:00Z,29.4012,-89.0355,11.36,277.0,0.176,-99999.0,'11133222,11111222,99999999' 
WAVCIS,ioos:station:WAVCIS:CSI16:1,2009-06-06T10:00:00Z,29.4012,-89.0355,11.36,326.0,0.129,-99999.0,'11133222,11111222,99999999' 
WAVCIS,ioos:station:WAVCIS:CSI16:1,2009-06-06T11:00:00Z,29.4012,-89.0355,11.36,308.0,0.13,-99999.0,'11133222,11111222,99999999' 
WAVCIS,ioos:station:WAVCIS:CSI16:1,2009-06-06T12:00:00Z,29.4012,-89.0355,11.36,287.0,0.117,-99999.0,'11133222,11111222,99999999' 
WAVCIS,ioos:station:WAVCIS:CSI16:1,2009-06-06T13:00:00Z,29.4012,-89.0355,11.36,220.0,0.108,-99999.0,'11133222,11111222,99999999' 
WAVCIS,ioos:station:WAVCIS:CSI16:1,2009-06-06T14:00:00Z,29.4012,-89.0355,11.36,290.0,0.141,-99999.0,'11133222,11111222,99999999' 
WAVCIS,ioos:station:WAVCIS:CSI16:1,2009-06-06T15:00:00Z,29.4012,-89.0355,11.36,285.0,0.188,-99999.0,'11133222,11111222,99999999' 
WAVCIS,ioos:station:WAVCIS:CSI16:1,2009-06-06T16:00:00Z,29.4012,-89.0355,11.36,282.0,0.21,-99999.0,'11133222,11111222,99999999' 
WAVCIS,ioos:station:WAVCIS:CSI16:1,2009-06-06T17:00:00Z,29.4012,-89.0355,11.36,283.0,0.279,-99999.0,'11133222,11111222,99999999' 
WAVCIS,ioos:station:WAVCIS:CSI16:1,2009-06-06T18:00:00Z,29.4012,-89.0355,11.36,281.0,0.242,-99999.0,'11133222,11111222,99999999' 
WAVCIS,ioos:station:WAVCIS:CSI16:1,2009-06-06T19:00:00Z,29.4012,-89.0355,11.36,277.0,0.284,-99999.0,'11133222,11111222,99999999' 
WAVCIS,ioos:station:WAVCIS:CSI16:1,2009-06-06T20:00:00Z,29.4012,-89.0355,10.86,265.0,0.284,-99999.0,'11133222,11111222,99999999' 
WAVCIS,ioos:station:WAVCIS:CSI16:1,2009-06-06T21:00:00Z,29.4012,-89.0355,10.86,248.0,0.24,-99999.0,'11133222,11111222,99999999' 
WAVCIS,ioos:station:WAVCIS:CSI16:1,2009-06-06T22:00:00Z,29.4012,-89.0355,10.86,256.0,0.182,-99999.0,'11133222,11111222,99999999' 
WAVCIS,ioos:station:WAVCIS:CSI16:1,2009-06-06T23:00:00Z,29.4012,-89.0355,10.86,283.0,0.323,-99999.0,'11133222,11111222,99999999' 
WAVCIS,ioos:station:WAVCIS:CSI16:1,2009-06-07T00:00:00Z,29.4012,-89.0355,10.86,306.0,0.151,-99999.0,'11133222,11111222,99999999' 
WAVCIS,ioos:station:WAVCIS:CSI16:1,2009-06-07T01:00:00Z,29.4012,-89.0355,10.86,319.0,0.151,-99999.0,'11133222,11111222,99999999' 
WAVCIS,ioos:station:WAVCIS:CSI16:1,2009-06-07T02:00:00Z,29.4012,-89.0355,10.86,334.0,0.109,-99999.0,'11133222,11111222,99999999' 
WAVCIS,ioos:station:WAVCIS:CSI16:1,2009-06-07T03:00:00Z,29.4012,-89.0355,10.86,342.0,0.172,-99999.0,'11133222,11111222,99999999' 
WAVCIS,ioos:station:WAVCIS:CSI16:1,2009-06-07T04:00:00Z,29.4012,-89.0355,10.86,11.0,0.092,-99999.0,'11133222,11111222,99999999' 
WAVCIS,ioos:station:WAVCIS:CSI16:1,2009-06-07T05:00:00Z,29.4012,-89.0355,10.86,66.0,0.036,-99999.0,'11133222,11111222,99999999' 
WAVCIS,ioos:station:WAVCIS:CSI16:1,2009-06-07T06:00:00Z,29.4012,-89.0355,11.36,127.0,0.059,-99999.0,'11133222,11111222,99999999' 
WAVCIS,ioos:station:WAVCIS:CSI16:1,2009-06-07T07:00:00Z,29.4012,-89.0355,11.36,43.0,0.022,-99999.0,'11133222,11111222,99999999' 
WAVCIS,ioos:station:WAVCIS:CSI16:1,2009-06-07T08:00:00Z,29.4012,-89.0355,11.36,131.0,0.074,-99999.0,'11133222,11111222,99999999' 
WAVCIS,ioos:station:WAVCIS:CSI16:1,2009-06-07T09:00:00Z,29.4012,-89.0355,11.36,139.0,0.084,-99999.0,'11133222,11111222,99999999' 
WAVCIS,ioos:station:WAVCIS:CSI16:1,2009-06-07T10:00:00Z,29.4012,-89.0355,11.36,108.0,0.186,-99999.0,'11133222,11111222,99999999' 
WAVCIS,ioos:station:WAVCIS:CSI16:1,2009-06-07T11:00:00Z,29.4012,-89.0355,11.36,88.0,0.139,-99999.0,'11133222,11111222,99999999' 
WAVCIS,ioos:station:WAVCIS:CSI16:1,2009-06-07T12:00:00Z,29.4012,-89.0355,11.36,95.0,0.137,-99999.0,'11133222,11111222,99999999' 
WAVCIS,ioos:station:WAVCIS:CSI16:1,2009-06-07T13:00:00Z,29.4012,-89.0355,11.36,90.0,0.117,-99999.0,'11133222,11111222,99999999' 
WAVCIS,ioos:station:WAVCIS:CSI16:1,2009-06-07T14:00:00Z,29.4012,-89.0355,11.36,103.0,0.132,-99999.0,'11133222,11111222,99999999' 
WAVCIS,ioos:station:WAVCIS:CSI16:1,2009-06-07T15:00:00Z,29.4012,-89.0355,11.36,130.0,0.179,-99999.0,'11133222,11111222,99999999' 
WAVCIS,ioos:station:WAVCIS:CSI16:1,2009-06-07T16:00:00Z,29.4012,-89.0355,11.36,155.0,0.089,-99999.0,'11133222,11111222,99999999' 
WAVCIS,ioos:station:WAVCIS:CSI16:1,2009-06-07T17:00:00Z,29.4012,-89.0355,11.36,136.0,0.115,-99999.0,'11133222,11111222,99999999' 
WAVCIS,ioos:station:WAVCIS:CSI16:1,2009-06-07T18:00:00Z,29.4012,-89.0355,11.36,106.0,0.083,-99999.0,'11133222,11111222,99999999' 
WAVCIS,ioos:station:WAVCIS:CSI16:1,2009-06-07T19:00:00Z,29.4012,-89.0355,11.36,165.0,0.069,-99999.0,'11133222,11111222,99999999' 
WAVCIS,ioos:station:WAVCIS:CSI16:1,2009-06-07T20:00:00Z,29.4012,-89.0355,11.36,175.0,0.112,-99999.0,'11133222,11111222,99999999' 
WAVCIS,ioos:station:WAVCIS:CSI16:1,2009-06-07T21:00:00Z,29.4012,-89.0355,10.86,226.0,0.129,-99999.0,'11133222,11111222,99999999' 
WAVCIS,ioos:station:WAVCIS:CSI16:1,2009-06-07T22:00:00Z,29.4012,-89.0355,10.86,220.0,0.24,-99999.0,'11133222,11111222,99999999' 
WAVCIS,ioos:station:WAVCIS:CSI16:1,2009-06-07T23:00:00Z,29.4012,-89.0355,10.86,218.0,0.257,-99999.0,'11133222,11111222,99999999' 
WAVCIS,ioos:station:WAVCIS:CSI16:1,2009-06-08T00:00:00Z,29.4012,-89.0355,10.86,214.0,0.202,-99999.0,'11133222,11111222,99999999' 
WAVCIS,ioos:station:WAVCIS:CSI16:1,2009-06-08T01:00:00Z,29.4012,-89.0355,10.86,57.0,0.061,-99999.0,'11133222,11111222,99999999' 
WAVCIS,ioos:station:WAVCIS:CSI16:1,2009-06-08T02:00:00Z,29.4012,-89.0355,10.86,55.0,0.068,-99999.0,'11133222,11111222,99999999' 
WAVCIS,ioos:station:WAVCIS:CSI16:1,2009-06-08T03:00:00Z,29.4012,-89.0355,10.86,326.0,0.087,-99999.0,'11133222,11111222,99999999' 
WAVCIS,ioos:station:WAVCIS:CSI16:1,2009-06-08T04:00:00Z,29.4012,-89.0355,10.86,336.0,0.098,-99999.0,'11133222,11111222,99999999' 
WAVCIS,ioos:station:WAVCIS:CSI16:1,2009-06-08T05:00:00Z,29.4012,-89.0355,10.86,64.0,0.076,-99999.0,'11133222,11111222,99999999' 
WAVCIS,ioos:station:WAVCIS:CSI16:1,2009-06-08T06:00:00Z,29.4012,-89.0355,11.36,71.0,0.086,-99999.0,'11133222,11111222,99999999' 
WAVCIS,ioos:station:WAVCIS:CSI16:1,2009-06-08T07:00:00Z,29.4012,-89.0355,11.36,73.0,0.164,-99999.0,'11133222,11111222,99999999' 
WAVCIS,ioos:station:WAVCIS:CSI16:1,2009-06-08T08:00:00Z,29.4012,-89.0355,11.36,76.0,0.237,-99999.0,'11133222,11111222,99999999' 
WAVCIS,ioos:station:WAVCIS:CSI16:1,2009-06-08T09:00:00Z,29.4012,-89.0355,11.36,77.0,0.136,-99999.0,'11133222,11111222,99999999' 
WAVCIS,ioos:station:WAVCIS:CSI16:1,2009-06-08T10:00:00Z,29.4012,-89.0355,11.36,77.0,0.139,-99999.0,'11133222,11111222,99999999' 
WAVCIS,ioos:station:WAVCIS:CSI16:1,2009-06-08T11:00:00Z,29.4012,-89.0355,11.36,71.0,0.139,-99999.0,'11133222,11111222,99999999' 
WAVCIS,ioos:station:WAVCIS:CSI16:1,2009-06-08T12:00:00Z,29.4012,-89.0355,11.36,73.0,0.039,-99999.0,'11133222,11111222,99999999' 
WAVCIS,ioos:station:WAVCIS:CSI16:1,2009-06-08T13:00:00Z,29.4012,-89.0355,11.36,104.0,0.05,-99999.0,'11133222,11111222,99999999' 
WAVCIS,ioos:station:WAVCIS:CSI16:1,2009-06-08T14:00:00Z,29.4012,-89.0355,11.36,88.0,0.139,-99999.0,'11133222,11111222,99999999' 
WAVCIS,ioos:station:WAVCIS:CSI16:1,2009-06-08T15:00:00Z,29.4012,-89.0355,11.36,76.0,0.16,-99999.0,'11133222,11111222,99999999' 